TimeEST,TemperatureF,Dew PointF,Humidity,Sea Level PressureIn,VisibilityMPH,Wind Direction,Wind SpeedMPH,Gust SpeedMPH,PrecipitationIn,Events,Conditions,WindDirDegrees,DateUTC
12:53 AM,30.0,28.0,92,30.06,10.0,Calm,Calm,-,N/A,,Clear,0,2014-02-20 05:53:00
1:53 AM,30.0,28.0,92,30.05,10.0,Calm,Calm,-,N/A,,Clear,0,2014-02-20 06:53:00
2:53 AM,28.9,28.0,96,30.02,10.0,Calm,Calm,-,N/A,,Clear,0,2014-02-20 07:53:00
3:53 AM,28.9,28.0,96,29.99,10.0,Calm,Calm,-,N/A,,Clear,0,2014-02-20 08:53:00
4:53 AM,27.0,26.1,96,29.96,10.0,SSW,3.5,-,N/A,,Clear,200,2014-02-20 09:53:00
5:53 AM,28.9,28.0,96,29.92,10.0,Calm,Calm,-,N/A,,Mostly Cloudy,0,2014-02-20 10:53:00
6:53 AM,32.0,30.0,92,29.89,10.0,Calm,Calm,-,0.00,,Overcast,0,2014-02-20 11:53:00
7:53 AM,35.1,32.0,89,29.87,10.0,Variable,4.6,-,0.00,,Mostly Cloudy,0,2014-02-20 12:53:00
8:53 AM,42.1,33.1,70,29.86,10.0,SSW,9.2,-,N/A,,Mostly Cloudy,200,2014-02-20 13:53:00
9:53 AM,50.0,39.9,68,29.83,10.0,South,9.2,-,N/A,,Clear,190,2014-02-20 14:53:00
10:53 AM,53.1,46.0,77,29.81,10.0,SSW,9.2,-,N/A,,Mostly Cloudy,200,2014-02-20 15:53:00
11:53 AM,60.1,52.0,75,29.77,10.0,South,13.8,21.9,N/A,,Mostly Cloudy,190,2014-02-20 16:53:00
12:53 PM,64.0,54.0,70,29.72,10.0,South,19.6,-,N/A,,Overcast,190,2014-02-20 17:53:00
1:53 PM,64.9,53.1,65,29.70,10.0,SSW,21.9,32.2,N/A,,Overcast,200,2014-02-20 18:53:00
2:53 PM,64.0,52.0,65,29.67,10.0,SSW,17.3,26.5,N/A,,Overcast,210,2014-02-20 19:53:00
3:53 PM,66.0,52.0,60,29.66,10.0,South,18.4,25.3,N/A,,Mostly Cloudy,190,2014-02-20 20:53:00
4:53 PM,64.0,52.0,65,29.65,10.0,South,12.7,-,N/A,,Overcast,190,2014-02-20 21:53:00
5:53 PM,64.0,51.1,63,29.63,10.0,South,11.5,-,N/A,,Overcast,190,2014-02-20 22:53:00
6:53 PM,64.9,51.1,61,29.60,10.0,South,12.7,-,0.00,,Mostly Cloudy,180,2014-02-20 23:53:00
7:12 PM,64.9,51.1,61,29.61,10.0,South,13.8,-,N/A,Thunderstorm,Thunderstorm,190,2014-02-21 00:12:00
7:35 PM,64.9,52.0,63,29.59,7.0,South,16.1,24.2,0.01,Rain-Thunderstorm,Light Thunderstorms and Rain,180,2014-02-21 00:35:00
7:53 PM,66.0,54.0,65,29.58,10.0,South,24.2,36.8,0.01,Rain,Light Rain,180,2014-02-21 00:53:00
8:53 PM,62.1,59.0,90,29.59,6.0,South,28.8,39.1,0.13,Rain-Thunderstorm,Thunderstorms and Rain,180,2014-02-21 01:53:00
9:20 PM,61.0,59.0,93,29.59,9.0,South,21.9,31.1,0.04,Rain,Light Rain,180,2014-02-21 02:20:00
9:53 PM,61.0,-9999,N/A,29.56,10.0,South,9.2,21.9,0.07,,Overcast,170,2014-02-21 02:53:00
10:53 PM,61.0,-9999,N/A,29.52,10.0,South,18.4,26.5,0.00,,Mostly Cloudy,180,2014-02-21 03:53:00
11:37 PM,55.9,-9999,N/A,29.60,1.5,West,39.1,48.3,0.12,Rain,Light Rain,270,2014-02-21 04:37:00
11:44 PM,50.0,-9999,N/A,29.60,1.0,West,17.3,48.3,0.16,Rain,Heavy Rain,270,2014-02-21 04:44:00
11:48 PM,50.0,-9999,N/A,29.58,3.0,West,13.8,31.1,0.18,Rain,Heavy Rain,270,2014-02-21 04:48:00
11:53 PM,50.0,-9999,N/A,29.59,4.0,WSW,18.4,25.3,0.19,Rain,Rain,250,2014-02-21 04:53:00